Weather observations for the past three days for
Valdosta Regional Airport
Imperial (Metric)
Date Time (edt) Wind (mph) Vis. (mi.) Weather Sky Cond. Temperature (ºF) Relative Humidity Wind Chill (°F) Heat Index (°F) Pressure Precipitation (in)
Air Dwpt 6 hour altimeter (in) sea level (mb) 1 hr 3 hr 6 hr
Max. Min.
08 19:53 Calm 10.00 Overcast FEW047 BKN075 OVC090 62.6 57.2 83% 29.99 0.0
08 18:53 Calm 10.00 A Few Clouds FEW050 75.2 62.6 65% 77 29.89 0.0
08 17:53 Calm 10.00 NULL NULL 77 62.6 61% 79 29.88 0.0
08 16:53 Calm 10.00 Partly Cloudy SCT075 78.8 62.6 58% 80 29.89 0.0
08 15:53 Calm 10.00 Mostly Cloudy BKN075 80.6 62.6 54% 82 29.9 0.0
08 14:53 Calm 10.00 Mostly Cloudy BKN080 80.6 62.6 54% 82 29.91 0.0
08 12:47 Calm 10.00 Overcast OVC033 75.2 59 57% 78 29.97 0.0
08 05:54 Calm 10.00 Mostly Cloudy FEW012 BKN041 71.6 68 88% 29.91 0.0
08 04:55 Calm 10.00 Mostly Cloudy FEW013 FEW027 BKN039 71.6 69.8 94% 29.89 0.0
07 19:53 Vrbl 5 10.00 NULL NULL 77 73.4 89% 78 29.87 0.0
07 17:53 SW 8 10.00 NULL NULL 77 71.6 83% 78 29.87 0.0
07 08:53 S 5 10.00 Overcast OVC009 70 68 93% 29.99 1016.0
07 07:53 Calm 10.00 Overcast OVC012 69.1 66.9 69.1 66 93% 29.97 1015.6
07 06:53 Calm 10.00 Mostly Cloudy BKN011 66.9 66 97% 29.95 1014.9
07 05:53 S 5 9.00 Fair CLR 66 66 100% 29.93 1013.9
07 04:53 Calm 7.00 Fair CLR 66.9 66 97% 29.94 1014.3
07 03:53 S 5 7.00 Fair CLR 69.1 68 96% 29.9 1013.0
07 02:53 SW 3 7.00 Mostly Cloudy BKN004 69.1 68 96% 29.93 1013.9
07 01:53 S 5 9.00 Fair CLR 69.1 68 81 69.1 96% 29.95 1014.6
07 00:53 Calm 10.00 Fair CLR 70 66.9 90% 29.98 1015.6
06 23:53 SW 3 10.00 Fair CLR 71.1 66 84% 29.98 1015.6
06 22:53 SW 5 10.00 Fair CLR 72 64 76% 29.98 1015.6
06 21:53 S 7 10.00 Fair CLR 75 64 69% 77 29.96 1015.1
06 20:53 S 6 10.00 Fair CLR 77 63 62% 79 29.96 1015.2
06 19:53 SW 5 10.00 Fair CLR 81 61 90 81 51% 82 29.97 1015.3
06 18:53 SW 5 10.00 Fair CLR 84 60.1 44% 84 29.96 1014.9
06 17:53 S 7 10.00 Fair CLR 87.1 59 39% 86 29.97 1015.3
06 16:53 SW 7 10.00 A Few Clouds FEW055 88 62.1 42% 88 29.97 1015.3
06 15:53 SW 7 10.00 A Few Clouds FEW050 88 63 43% 89 29.98 1015.8
06 14:53 SW 9 10.00 Fair CLR 86 62.1 45% 87 30 1016.4
06 13:53 Vrbl 6 10.00 A Few Clouds FEW048 86 63 86 64.9 46% 87 30.02 1017.0
06 12:53 Vrbl 5 G 16 10.00 Partly Cloudy SCT042 84 64 51% 85 30.04 1017.7
06 11:53 S 12 10.00 Partly Cloudy SCT035 82 64 55% 84 30.05 1018.2
06 10:53 S 7 4.00 Fair with Haze CLR 79 66 65% 81 30.04 1017.8
06 09:53 S 12 1.75 Fair with Haze CLR 75.9 64.9 69% 78 30.03 1017.6
06 08:53 S 5 2.00 Fair with Haze CLR 70 63 79% 30.02 1017.2
06 07:53 S 5 10.00 Fair CLR 64.9 61 64.9 60.1 87% 30 1016.5
06 06:53 S 5 7.00 Fair CLR 61 60.1 97% 29.98 1015.8
06 05:53 Calm 6.00 Fog/Mist FEW015 61 61 100% 29.98 1015.9
06 04:53 S 5 9.00 Fair CLR 62.1 61 96% 29.98 1015.7
Date Time (edt) Wind (mph) Vis. (mi.) Weather Sky Cond. Air Dwpt Max. Min. Relative Humidity Wind Chill (°F) Heat Index (°F) altimeter (in) sea level (mb) 1 hr 3 hr 6 hr
6 hour
Temperature (ºF) Pressure Precipitation (in)